Regional Weather Roundup
Issued by NWS

Home | Current Version | Previous Version | Text Only | Print | Product List | Glossary On
Versions: 1 2 3 4 5 6 7 8 9 10 11 12 13 14 15 16 17 18 19 20 21 22 23 24 25 26 27 28 29 30 31 32 33 34 35 36 37 38 39 40 41 42 43 44 45 46 47 48 49 50
000
ASUS45 KTFX 251910
RWRMT
MONTANA REGIONAL WEATHER ROUNDUP
NATIONAL WEATHER SERVICE GREAT FALLS MT
100 PM MDT MON SEP 25 2017

NOTE: "FAIR" INDICATES FEW OR NO CLOUDS BELOW 12000 FEET WITH NO
SIGNIFICANT WEATHER AND/OR OBSTRUCTIONS TO VISIBILITY.

MTZ001>007-043-252000-
WEST OF THE DIVIDE

CITY           SKY/WX    TMP DP  RH WIND       PRES   REMARKS
KALISPELL      CLOUDY    58  44  60 S9        30.06F
MISSOULA       LGT RAIN  50  42  74 SE5       30.12S
BUTTE          CLOUDY    49  32  52 N5        30.11F
MULLAN PASS    CLOUDY    45  35  68 VRB5      30.13S
ANACONDA         N/A     52  34  50 W6        30.10S
DEER LODGE       N/A     48  36  61 NE6       30.13S
EUREKA           N/A     63  41  45 MISG      30.04F
HAMILTON         N/A     54  37  54 S6        30.12S
LIBBY            N/A     57  43  58 CALM      30.05F
PLAINS           N/A     60  43  53 CALM      30.08F
RONAN            N/A     57  43  59 SE7       30.12F
THOMPSON FALLS   N/A     57  46  66 CALM      30.12F
$$

MTZ008-052>055-252000-
SOUTHWEST MONTANA

CITY           SKY/WX    TMP DP  RH WIND       PRES   REMARKS
BOZEMAN        PTSUNNY   54  30  40 CALM      30.09F
DILLON         CLOUDY    52  29  41 W8        30.10F
W YELLOWSTONE  CLOUDY    43  23  45 CALM      30.12S
ENNIS          PTSUNNY   54  23  30 SW7       30.15S
THREE FORKS      N/A     53  32  45 S2        30.07F
TWIN BRIDGES     N/A     50  28  42 CALM      30.09F
$$

MTZ009-010-012-014-046-048-049-054-252000-
EAST SLOPES AND CENTRAL MONTANA

CITY           SKY/WX    TMP DP  RH WIND       PRES   REMARKS
CUT BANK       PTSUNNY   59  34  39 S8        30.00F
GREAT FALLS    MOSUNNY   59  34  39 S7        30.02F
MALMSTROM AFB  MOSUNNY   58  35  41 W6        30.02F
HELENA         MOSUNNY   55  36  48 E7        30.06F
BOWMANS CRNR     N/A     55  36  49 S8        30.01F
CHOTEAU          N/A     59  30  33 CALM      30.04S
FAIRFIELD        N/A     56  33  40 CALM      30.01F
POWER            N/A     56  32  39 CALM      30.02F
RAYNESFORD     PTSUNNY   57  33  39 NW9G16    30.03F
ULM              N/A     58  34  39 NE3       30.02F
$$

MTZ011-013-016-021-045-047-050-051-252000-
NORTH CENTRAL MONTANA

CITY           SKY/WX    TMP DP  RH WIND       PRES   REMARKS
HAVRE          SUNNY     62  34  35 E6        30.02F
LEWISTOWN      SUNNY     55  28  35 SW5       30.04F
N BAR RANCH      N/A     55  32  41 E12       30.06S
CHINOOK          N/A     63  32  31 NE6       30.01F
DENTON           N/A     56  27  33 SW6       30.00F
GEYSER           N/A     56  29  35 SE3       30.03F
JUDITH GAP       N/A     52  28  38 CALM      30.04F
WINIFRED         N/A     55  31  40 NE9       30.03F
$$

MTZ017>020-022>027-061-062-252000-
NORTHEAST MONTANA

CITY           SKY/WX    TMP DP  RH WIND       PRES   REMARKS
GLASGOW        CLOUDY    57  35  43 SE14      30.08F
JORDAN           N/A     56  37  49 SE9       30.08F
SIDNEY           N/A    N/A N/A N/A MISG        N/A
WOLF POINT     MOSUNNY   55  37  50 VRB5      30.12F
MALTA          SUNNY     61  36  39 S12G17    30.06F
PLENTYWOOD       N/A     50  39  66 CALM      30.14F
POPLAR           N/A     50  43  76 SE6       30.14F
SCOBEY           N/A     57  32  39 S9        30.08F
$$

MTZ028>42-056>058-252000-
SOUTHCENTRAL AND SOUTHEAST MONTANA

CITY           SKY/WX    TMP DP  RH WIND       PRES   REMARKS
BAKER          CLOUDY    44  38  79 S5        30.15S
BILLINGS       CLOUDY    53  37  54 VRB3      30.06F
LIVINGSTON     SUNNY     57  29  34 SW14G21   30.05F
MILES CITY     LGT RAIN  46  43  89 SE10      30.13S
BIG TIMBER     SUNNY     57  30  35 W10G22    30.07F
EKALAKA          N/A     44  38  79 E3        30.09F
HARLOWTON        N/A     57  27  31 MISG      30.04F
LAUREL           N/A     55  39  54 VRB7G15   30.06F
$$

REGIONAL REPORTS...DAKOTAS

CITY           SKY/WX    TMP DP  RH WIND       PRES   REMARKS
WILLISTON      CLOUDY    52  42  69 CALM      30.15S
MINOT          CLOUDY    54  42  64 CALM      30.15S
DICKINSON      LGT RAIN  46  42  86 SW3       30.13F FOG
BEACH          DRIZZLE   45  43  93 SE6       30.17S
CROSBY         CLOUDY    52  45  76 S3        30.15F
TIOGA          CLOUDY    52  43  71 VRB7      30.15S
BISMARCK       CLOUDY    53  43  68 N7        30.14F
GRAND FORKS    CLOUDY    53  47  79 N14       30.12F
FARGO          CLOUDY    52  47  83 N12       30.10S
BUFFALO SD       N/A     48  40  73 NE6       30.07F
RAPID CITY     CLOUDY    50  43  76 S8        30.11F
$$

REGIONAL REPORTS...WYOMING/IDAHO/WASHINGTON

CITY           SKY/WX    TMP DP  RH WIND       PRES   REMARKS
GILLETTE       CLOUDY    47  39  74 N5        30.10F
SHERIDAN       CLOUDY    51  40  65 VRB5      30.10S
BUFFALO WY     CLOUDY    45  37  73 E5        30.11S
CODY           PTSUNNY   49  31  49 E7        30.09F
IDAHO FALLS    PTSUNNY   53  27  36 W7        30.13F
SALMON         CLOUDY    53  33  46 CALM      30.14F
BOISE          SUNNY     62  33  33 W5        30.12F
SPOKANE        PTSUNNY   62  42  47 S7        30.07F
$$

REGIONAL REPORTS...ALBERTA

CITY           SKY/WX    TMP DP  RH WIND       PRES   REMARKS
EDMONTON       PTSUNNY   63  46  55 SW8       29.90F
CALGARY        MOSUNNY   64  37  36 N5        29.96F
LETHBRIDGE     PTSUNNY   63  36  36 NW9G23    29.96F
MEDICINE HAT   PTSUNNY   66  34  30 SW10      29.96F
$$

REGIONAL REPORTS...SASKATCHEWAN

CITY           SKY/WX    TMP DP  RH WIND       PRES   REMARKS
SWIFT CURRENT  SUNNY     61  36  39 S13G24    30.01F
REGINA         CLOUDY    59  28  31 S13G20    30.12S
SASKATOON      MOSUNNY   63  37  39 S14G24    30.03F
$$



USA.gov is the U.S. government's official web portal to all federal, state and local government web resources and services.